Location: Unspecified
(44.4377°N, 88.0525°W)
Time: 08:05:02
(UTC-05:00)

CZ-3 Stage 3 - Visible Passes

Search period start: 28 August 2014 00:00
Search period end: 07 September 2014 00:00
Orbit: 409 x 34841 km, 30.6° (Epoch: 27 August)

Date Brightness Start Highest point End Pass type
(mag) Time Alt. Az. Time Alt. Az. Time Alt. Az.
28 Aug 7.8 02:38:52 10° S 08:31:53 39° S 08:46:24 10° ESE visible
29 Aug 8.9 01:53:43 10° SE 04:20:45 21° SE 05:01:15 10° ESE visible
31 Aug 7.7 02:27:26 10° S 08:30:22 40° S 08:44:20 10° ESE visible
01 Sep 8.8 01:35:49 10° SE 04:19:55 23° SE 05:00:42 10° ESE visible
03 Sep 7.6 02:16:18 10° S 08:28:32 42° S 08:42:00 10° ESE visible
04 Sep 8.8 01:18:23 10° SE 04:18:47 25° SE 04:59:34 10° ESE visible
06 Sep 7.5 02:05:27 10° S 08:26:22 43° S 08:39:23 10° ESE visible
